AI9T Weather Reports


Display with metric or nautical units.
time (UTC)temp
F
wind
direction
speed
MPH
gust
MPH
rain 1hr
in
rain 24hr
in
rain mn
in
humidity
%
barometer
mb
20260504001503 63 172 5.0 13.0 0.00 0.00 0.00 48 1009.5
20260503235004 64 169 8.0 15.0 0.00 0.00 0.00 47 1009.7
20260503234004 64 191 8.0 20.0 0.00 0.00 0.00 46 1010.0
20260503233004 64 177 8.0 14.0 0.00 0.00 0.00 46 1010.3
20260503230503 65 198 7.0 18.0 0.00 0.00 0.00 46 1010.4
20260503225503 65 182 9.0 15.0 0.00 0.00 0.00 45 1010.4
20260503225004 64 191 7.0 14.0 0.00 0.00 0.00 48 1010.7
20260503223004 64 207 7.0 15.0 0.00 0.00 0.00 46 1011.2
20260503222503 64 200 7.0 16.0 0.00 0.00 0.00 47 1011.0
20260503222003 63 205 7.0 16.0 0.00 0.00 0.00 46 1011.1
20260503220503 63 210 11.0 20.0 0.00 0.00 0.00 46 1010.9
20260503215003 63 202 14.0 28.0 0.00 0.00 0.00 45 1010.5
20260503212503 64 183 13.0 26.0 0.00 0.00 0.00 46 1011.0
20260503211004 64 196 13.0 23.0 0.00 0.00 0.00 47 1011.1
20260503205503 64 178 10.0 20.0 0.00 0.00 0.00 46 1011.5
20260503204503 63 177 11.0 24.0 0.00 0.00 0.00 46 1011.9
20260503204003 62 200 10.0 18.0 0.00 0.00 0.00 47 1012.0
20260503203504 62 188 7.0 20.0 0.00 0.00 0.00 46 1012.1
20260503203004 62 183 9.0 26.0 0.00 0.00 0.00 46 1012.1
20260503201504 62 184 10.0 20.0 0.00 0.00 0.00 47 1011.8
20260503201003 62 182 8.0 23.0 0.00 0.00 0.00 49 1011.8
20260503200503 62 167 9.0 23.0 0.00 0.00 0.00 46 1012.4
20260503195504 62 169 10.0 23.0 0.00 0.00 0.00 46 1013.3
20260503194005 62 197 12.0 20.0 0.00 0.00 0.00 46 1013.8
20260503191505 62 198 10.0 20.0 0.00 0.00 0.00 46 1014.4
20260503191004 62 213 11.0 18.0 0.00 0.00 0.00 46 1014.3
20260503190004 63 188 13.0 24.0 0.00 0.00 0.00 43 1014.1
20260503185504 63 189 12.0 20.0 0.00 0.00 0.00 43 1014.3
20260503184504 63 184 12.0 23.0 0.00 0.00 0.00 45 1014.3
20260503181505 64 201 10.0 20.0 0.00 0.00 0.00 46 1015.2
20260503181004 63 192 9.0 20.0 0.00 0.00 0.00 47 1015.2
20260503180504 63 215 10.0 22.0 0.00 0.00 0.00 49 1015.2
20260503180004 63 199 13.0 22.0 0.00 0.00 0.00 47 1015.3
20260503175004 63 205 12.0 23.0 0.00 0.00 0.00 50 1015.6
20260503174504 62 176 14.0 23.0 0.00 0.00 0.00 48 1015.7
20260503174004 62 198 12.0 22.0 0.00 0.00 0.00 50 1016.0
20260503172504 62 198 12.0 22.0 0.00 0.00 0.00 48 1016.5
20260503130504 50 193 6.0 13.0 0.00 0.00 0.00 70 1018.7
20260503081004 37 342 0.0 0.0 0.00 0.00 0.00 89 1018.5
20260503072504 37 342 0.0 0.0 0.00 0.00 0.00 89 1018.4
20260503055004 39 342 0.0 0.0 0.00 0.00 0.00 89 1018.9
20260503054504 39 342 0.0 0.0 0.00 0.00 0.00 89 1018.9
20260503054004 39 342 0.0 0.0 0.00 0.00 0.00 88 1018.9
20260503053504 39 342 0.0 0.0 0.00 0.00 0.00 88 1018.9
20260503053004 39 342 0.0 0.0 0.00 0.00 0.00 88 1018.9
20260503052504 39 342 0.0 0.0 0.00 0.00 0.00 87 1018.9
20260503052004 39 342 0.0 0.0 0.00 0.00 0.00 87 1018.8
20260503051004 39 342 0.0 0.0 0.00 0.00 0.00 87 1018.9
20260503050005 39 342 0.0 0.0 0.00 0.00 0.00 85 1018.8
20260503044504 39 342 0.0 0.0 0.00 0.00 0.00 84 1018.8
20260503043004 40 342 0.0 0.0 0.00 0.00 0.00 84 1018.8
20260503042504 40 342 0.0 0.0 0.00 0.00 0.00 84 1018.8
20260503042004 40 342 0.0 0.0 0.00 0.00 0.00 84 1018.8
20260503041004 40 342 0.0 0.0 0.00 0.00 0.00 84 1018.8
20260503040504 40 342 0.0 0.0 0.00 0.00 0.00 84 1018.8
20260503040003 40 342 0.0 0.0 0.00 0.00 0.00 83 1018.9
20260503034504 40 342 0.0 0.0 0.00 0.00 0.00 80 1019.0
20260503033004 41 342 0.0 0.0 0.00 0.00 0.00 76 1018.9
20260503032004 41 342 0.0 0.0 0.00 0.00 0.00 74 1018.9
20260503030504 42 342 0.0 0.0 0.00 0.00 0.00 74 1018.8
20260503030004 42 342 0.0 0.0 0.00 0.00 0.00 72 1018.8
20260503025504 42 342 0.0 0.0 0.00 0.00 0.00 72 1018.8
20260503025004 42 342 0.0 0.0 0.00 0.00 0.00 71 1018.8
20260503024004 43 342 0.0 0.0 0.00 0.00 0.00 71 1018.8
20260503023004 43 342 0.0 0.0 0.00 0.00 0.00 71 1018.8
20260503022004 44 342 0.0 0.0 0.00 0.00 0.00 67 1018.7
20260503021504 44 342 0.0 0.0 0.00 0.00 0.00 68 1018.7
20260503021004 44 342 0.0 0.0 0.00 0.00 0.00 68 1018.7
20260503020003 45 342 0.0 0.0 0.00 0.00 0.00 65 1018.6
20260503014004 46 342 0.0 0.0 0.00 0.00 0.00 64 1018.4
20260503011504 48 343 0.0 0.0 0.00 0.00 0.00 51 1018.1
20260503010004 50 343 0.0 0.0 0.00 0.00 0.00 50 1018.1
20260503005503 50 343 0.0 0.0 0.00 0.00 0.00 46 1018.1
20260503004505 51 343 0.0 0.0 0.00 0.00 0.00 44 1018.0
20260503003003 52 343 0.0 3.0 0.00 0.00 0.00 44 1018.0